1504328400.41,22335,20.94,73664.5,5.01,-6.89,-3.19,0,*70
1504328401.65,22336,20.94,73674.3,5.01,-7.77,-3.95,0,*77
1504328402.85,22337,20.94,73676.3,5.01,-7.53,-3.19,0,*74
1504328404.07,22338,20.94,73674.0,5.01,-8.75,-4.41,0,*7A
1504328405.33,22339,20.94,73676.5,5.01,-9.53,-5.27,0,*7F
1504328406.53,22340,20.94,73658.3,4.99,-10.53,-6.35,0,*49
1504328407.77,22341,20.94,73642.8,4.97,-10.27,-5.77,0,*40
1504328408.97,22342,20.94,73654.0,4.95,-8.93,-4.57,0,*74
1504328410.19,22343,20.94,73654.3,4.95,-7.77,-3.31,0,*77
1504328411.39,22344,20.94,73654.3,4.95,-6.81,-2.31,0,*79
1504328412.61,22345,20.94,73660.3,4.95,-5.97,-2.75,0,*7C
1504328413.85,22346,20.94,73662.0,4.97,-8.03,-4.05,0,*7C
1504328415.03,22347,20.94,73664.5,4.99,-5.43,-2.39,0,*73
1504328416.27,22348,20.94,73652.8,4.97,-7.91,-3.83,0,*7F
1504328417.49,22349,20.94,73670.5,4.99,-7.43,-2.99,0,*75
1504328418.73,22350,20.88,73662.0,4.97,-6.43,-2.75,0,*70
1504328419.98,22351,20.94,73662.8,4.97,-8.11,-3.91,0,*73
1504328421.19,22352,20.94,73666.0,4.99,-7.31,-3.27,0,*7E
1504328422.4,22353,20.94,73664.5,4.99,-7.39,-2.87,0,*7C
1504328423.61,22354,20.94,73664.0,4.99,-7.87,-3.67,0,*71
1504328424.83,22355,20.94,73658.8,5.01,-8.29,-3.75,0,*78
1504328426.06,22356,20.94,73662.5,4.99,-7.39,-3.51,0,*73
1504328427.25,22357,20.94,73658.5,4.99,-8.75,-4.53,0,*70
1504328428.44,22358,20.94,73658.5,4.99,-8.33,-3.87,0,*73
1504328429.65,22359,20.94,73658.5,4.97,-7.11,-3.19,0,*74
1504328430.87,22360,20.94,73664.0,4.99,-6.85,-2.03,0,*76
1504328432.07,22361,20.94,73658.5,4.99,-6.77,-3.27,0,*7D
1504328433.28,22362,20.94,73654.0,4.99,-7.53,-3.63,0,*79
1504328434.5,22363,20.94,73660.5,4.99,-6.05,-2.47,0,*7D
1504328435.73,22364,20.94,73666.3,4.97,-5.11,-1.29,0,*79
1504328436.99,22365,20.94,73664.5,5.01,-4.89,-0.97,0,*42
1504328438.22,22366,20.88,73662.3,5.01,-5.19,-2.19,0,*7D
1504328439.44,22367,20.94,73668.5,5.03,-5.89,-1.79,0,*72
1504328440.65,22368,20.94,73668.0,5.03,-5.51,-1.13,0,*74
1504328441.87,22369,20.94,73670.8,5.03,-4.65,-1.47,0,*72
1504328443.06,22370,20.94,73670.3,5.03,-4.65,-1.79,0,*77
1504328444.28,22371,20.94,73668.3,5.03,-5.43,-2.55,0,*7E
1504328445.49,22372,20.94,73664.0,5.07,-7.35,-2.79,0,*74
1504328446.68,22373,20.94,73666.8,5.07,-5.51,-2.19,0,*73
1504328447.9,22374,20.94,73666.3,5.07,-5.85,-2.15,0,*71
1504328449.1,22375,20.94,73670.0,5.09,-4.45,-1.29,0,*7F
1504328450.33,22376,20.94,73668.8,5.07,-3.95,-1.43,0,*74
1504328451.54,22377,20.94,73670.8,5.09,-4.05,-1.79,0,*7C
1504328452.75,22378,20.94,73668.3,5.09,-4.61,-1.33,0,*7F
1504328453.97,22379,20.94,73670.3,5.09,-4.49,-0.93,0,*4F
1504328455.16,22380,20.94,73668.3,5.11,-4.53,-1.29,0,*7B
1504328456.36,22381,20.94,73664.8,5.13,-4.41,-1.25,0,*77
1504328457.63,22382,20.88,73658.3,5.13,-5.93,-2.75,0,*7C
1504328458.84,22383,20.94,73660.3,5.13,-6.73,-2.83,0,*79
1504328460.1,22384,20.94,73662.0,5.13,-5.89,-2.59,0,*7F
1504328461.36,22385,20.94,73666.3,5.13,-5.81,-2.55,0,*7A
1504328462.63,22386,20.94,73674.8,5.13,-5.81,-2.55,0,*79
1504328463.87,22387,20.94,73672.8,5.13,-6.55,-2.71,0,*74
1504328465.1,22388,20.94,73678.5,5.11,-7.43,-3.67,0,*79
1504328466.31,22389,20.94,73668.3,5.13,-8.21,-4.09,0,*7E
1504328467.49,22390,20.94,73674.3,5.11,-6.89,-3.11,0,*76
1504328468.75,22391,20.94,73668.3,5.13,-8.07,-4.01,0,*7B
1504328469.97,22392,20.94,73668.3,5.11,-7.61,-3.75,0,*71
1504328471.15,22393,20.94,73666.3,5.11,-7.53,-3.35,0,*75
1504328472.37,22394,20.94,73670.3,5.11,-6.73,-2.67,0,*77
1504328473.57,22395,20.94,73668.5,5.11,-6.63,-3.11,0,*77
1504328474.78,22396,20.94,73664.8,5.11,-5.81,-2.27,0,*7F
1504328476.0,22397,20.94,73670.3,5.11,-6.23,-2.23,0,*71
1504328477.24,22398,20.94,73668.0,5.11,-5.81,-2.51,0,*70
1504328478.43,22399,20.94,73664.3,5.11,-6.89,-2.87,0,*71
1504328479.62,22400,20.94,73670.8,5.11,-6.81,-3.35,0,*76
1504328480.85,22401,20.94,73666.0,5.11,-7.43,-3.63,0,*7B
1504328482.08,22402,20.94,73664.8,5.11,-7.73,-3.63,0,*7B
1504328483.28,22403,20.94,73670.5,5.11,-6.35,-2.99,0,*7D
1504328484.46,22404,20.94,73674.3,5.11,-5.35,-2.27,0,*7C
1504328485.7,22405,20.94,73668.3,5.09,-7.11,-3.59,0,*78
1504328486.91,22406,20.94,73674.3,5.09,-6.39,-2.91,0,*75
1504328488.15,22407,20.94,73674.0,5.13,-6.77,-3.59,0,*70
1504328489.39,22408,20.88,73674.5,5.09,-6.13,-2.71,0,*7D
1504328490.6,22409,20.94,73676.8,5.09,-6.01,-3.07,0,*7F
1504328491.81,22410,20.94,73676.5,5.09,-6.81,-3.31,0,*7A
1504328493.05,22411,20.94,73672.8,5.09,-7.77,-4.09,0,*7F
1504328494.31,22412,20.94,73676.3,5.09,-7.57,-3.43,0,*77
1504328495.52,22413,20.94,73676.0,5.09,-8.29,-4.45,0,*71
1504328496.73,22414,20.94,73680.5,5.07,-7.91,-3.95,0,*7E
1504328497.93,22415,20.94,73676.3,5.07,-8.37,-4.57,0,*75
1504328499.12,22416,20.94,73672.3,5.03,-9.23,-5.43,0,*72
1504328500.34,22417,20.88,73666.5,5.03,-9.37,-5.43,0,*76
1504328501.58,22418,20.94,73666.8,5.01,-8.89,-4.89,0,*78
1504328502.8,22419,20.94,73674.0,5.01,-7.83,-4.21,0,*7E
1504328504.03,22420,20.88,73668.0,4.99,-9.19,-5.31,0,*79
1504328505.24,22421,20.88,73670.5,4.97,-8.25,-4.57,0,*79
1504328506.46,22422,20.88,73670.5,4.97,-8.25,-4.57,0,*7A
1504328507.72,22423,20.94,73674.0,4.97,-7.57,-3.71,0,*72
1504328508.97,22424,20.94,73678.0,4.97,-8.37,-4.69,0,*72
1504328510.18,22425,20.94,73676.8,4.99,-8.59,-4.77,0,*7A
1504328511.43,22426,20.94,73678.0,4.97,-8.63,-4.81,0,*77
1504328512.66,22427,20.94,73668.0,4.97,-8.81,-4.99,0,*73
1504328513.91,22428,20.94,73674.3,4.95,-8.81,-4.85,0,*73
1504328515.13,22429,20.94,73670.8,4.95,-7.57,-3.83,0,*77
1504328516.35,22430,20.94,73676.0,4.95,-7.99,-3.91,0,*7E
1504328517.59,22431,20.88,73674.3,4.93,-7.91,-4.21,0,*7D
1504328518.82,22432,20.88,73668.0,4.95,-8.41,-4.69,0,*76
1504328520.01,22433,20.94,73670.8,4.95,-8.25,-4.49,0,*77
1504328521.23,22434,20.94,73674.8,4.95,-7.77,-3.83,0,*79
1504328522.44,22435,20.94,73678.3,4.95,-7.69,-4.09,0,*72
1504328523.66,22436,20.94,73682.5,4.95,-8.11,-4.49,0,*75
1504328524.91,22437,20.94,73680.0,4.97,-9.11,-5.39,0,*71
1504328526.13,22438,20.94,73672.8,4.95,-9.31,-5.61,0,*73
1504328527.33,22439,20.94,73672.0,4.95,-9.23,-5.47,0,*75
1504328528.6,22440,20.94,73666.8,4.93,-9.53,-5.89,0,*78
1504328529.84,22441,20.94,73664.5,4.95,-9.53,-5.85,0,*73
1504328531.11,22442,20.94,73656.3,4.91,-9.37,-5.65,0,*78
1504328532.38,22443,20.94,73652.0,4.91,-9.15,-5.31,0,*78
1504328533.57,22444,20.94,73658.0,4.89,-8.75,-4.99,0,*72
1504328534.78,22445,20.94,73658.5,4.91,-8.75,-4.99,0,*7A
1504328536.01,22446,20.94,73660.3,4.91,-7.01,-3.31,0,*70
1504328537.22,22447,20.94,73658.8,4.91,-6.43,-2.87,0,*7A
1504328538.46,22448,20.94,73664.8,4.91,-6.13,-2.71,0,*79
1504328539.73,22449,20.88,73666.3,4.91,-5.31,-2.07,0,*7A
1504328540.95,22450,20.94,73668.5,4.93,-6.31,-3.07,0,*72
1504328542.17,22451,20.94,73666.0,4.95,-8.03,-4.49,0,*77
1504328543.42,22452,20.94,73664.5,4.93,-7.73,-4.13,0,*75
1504328544.64,22453,20.94,73662.8,4.95,-8.11,-4.33,0,*7B
1504328545.86,22454,20.88,73660.5,4.95,-7.57,-3.83,0,*7D
1504328547.08,22455,20.94,73668.3,4.95,-7.11,-3.67,0,*74
1504328548.32,22456,20.88,73664.0,4.97,-7.73,-3.95,0,*7C
1504328549.56,22457,20.94,73672.0,4.97,-7.57,-4.05,0,*75
1504328550.77,22458,20.94,73674.0,4.97,-7.19,-3.83,0,*79
1504328552.01,22459,20.88,73674.3,4.97,-6.77,-3.43,0,*7D
1504328553.23,22460,20.88,73670.5,4.97,-7.19,-4.05,0,*7B
1504328554.44,22461,20.88,73664.0,5.01,-7.49,-3.95,0,*7F
1504328555.68,22462,20.88,73664.5,4.97,-7.57,-4.17,0,*70
1504328556.89,22463,20.94,73666.5,4.99,-7.69,-4.17,0,*72
1504328558.11,22464,20.88,73664.8,4.99,-7.43,-3.79,0,*72
1504328559.32,22465,20.88,73668.8,4.99,-6.77,-3.67,0,*7A
1504328560.53,22466,20.94,73672.8,4.97,-6.55,-3.19,0,*7E
1504328561.74,22467,20.94,73674.8,5.01,-6.43,-3.23,0,*7F
1504328562.95,22468,20.94,73676.0,5.01,-7.49,-4.21,0,*7E
1504328564.16,22469,20.94,73672.5,5.01,-7.49,-3.75,0,*79
1504328565.38,22470,20.88,73674.0,5.03,-7.35,-3.95,0,*76
1504328566.61,22471,20.94,73676.8,5.01,-7.11,-3.51,0,*7B
1504328567.82,22472,20.88,73672.8,5.03,-6.89,-3.63,0,*7B
1504328569.03,22473,20.94,73664.8,5.07,-7.23,-3.67,0,*7B
1504328570.24,22474,20.94,73662.5,5.07,-7.91,-4.45,0,*72
1504328571.45,22475,20.94,73660.0,5.07,-7.77,-4.17,0,*7C
1504328572.68,22476,20.94,73658.0,5.07,-7.35,-3.55,0,*78
1504328573.91,22477,20.94,73658.8,5.07,-6.97,-3.47,0,*73
1504328575.12,22478,20.94,73662.5,5.09,-6.85,-3.39,0,*78
1504328576.35,22479,20.94,73664.5,5.09,-6.63,-2.91,0,*72
1504328577.58,22480,20.88,73664.5,5.09,-6.27,-2.79,0,*72
1504328578.79,22481,20.94,73668.8,5.09,-6.31,-2.91,0,*72
1504328580.06,22482,20.94,73672.8,5.13,-6.19,-2.63,0,*7D
1504328581.3,22483,20.88,73672.0,5.13,-5.65,-2.31,0,*73
1504328582.54,22484,20.88,73672.3,5.13,-5.07,-2.23,0,*73
1504328583.79,22485,20.94,73674.3,5.15,-5.93,-2.75,0,*7A
1504328585.03,22486,20.94,73678.5,5.17,-5.65,-2.31,0,*72
1504328586.26,22487,20.94,73674.0,5.17,-6.69,-3.47,0,*7C
1504328587.5,22488,20.88,73666.0,5.17,-7.99,-4.57,0,*7B
1504328588.71,22489,20.94,73668.8,5.19,-8.07,-4.49,0,*73
1504328589.93,22490,20.94,73672.0,5.15,-7.69,-4.37,0,*79
1504328591.16,22491,20.94,73678.3,5.17,-7.19,-3.67,0,*7F
1504328592.4,22492,20.94,73680.8,5.15,-6.97,-3.59,0,*74
1504328593.62,22493,20.94,73674.3,5.15,-8.41,-4.89,0,*7A
1504328594.84,22494,20.94,73672.0,5.15,-8.33,-4.89,0,*78
1504328596.08,22495,20.94,73674.8,5.17,-8.11,-4.61,0,*7D
1504328597.29,22496,20.94,73674.0,5.13,-7.15,-3.95,0,*7D
1504328598.53,22497,20.94,73674.3,5.13,-7.57,-4.29,0,*7A
1504328599.73,22498,20.94,73676.8,5.13,-7.53,-4.17,0,*7C
1504328600.94,22499,20.94,73676.3,5.13,-6.89,-3.31,0,*78
1504328602.13,22500,20.94,73678.5,5.11,-6.73,-3.27,0,*79
1504328603.34,22501,20.94,73678.3,5.13,-6.85,-3.39,0,*7C
1504328604.59,22502,20.94,73678.0,5.13,-7.01,-3.63,0,*7D
1504328605.82,22503,20.94,73676.5,5.13,-7.15,-3.63,0,*79
1504328607.0,22504,20.94,73668.8,5.15,-7.49,-3.83,0,*7F
1504328608.19,22505,20.94,73670.5,5.15,-7.15,-3.75,0,*7E
1504328609.37,22506,20.94,73670.0,5.15,-6.69,-3.23,0,*74
1504328610.56,22507,20.94,73670.8,5.15,-6.85,-3.35,0,*70
1504328611.78,22508,20.94,73672.5,5.17,-6.51,-2.95,0,*7F
1504328613.0,22509,20.94,73676.8,5.15,-5.97,-2.75,0,*7B
1504328614.26,22510,20.94,73672.5,5.17,-5.89,-2.71,0,*7A
1504328615.48,22511,20.94,73668.8,5.19,-6.13,-2.55,0,*73
1504328616.75,22512,20.94,73672.5,5.21,-6.23,-2.47,0,*7B
1504328618.0,22513,20.94,73672.8,5.21,-5.73,-2.03,0,*7C
1504328619.24,22514,20.94,73672.5,5.21,-5.31,-1.63,0,*78
1504328620.48,22515,20.94,73666.8,5.25,-5.69,-1.87,0,*7A
1504328621.67,22516,20.94,73670.5,5.23,-4.17,-0.19,0,*41
1504328622.87,22517,20.94,73670.3,5.25,-2.71,0.05,0,*50
1504328624.06,22518,20.94,73670.8,5.29,-2.79,-0.33,0,*43
1504328625.31,22519,20.88,73670.8,5.31,-3.67,-0.85,0,*48
1504328626.55,22520,20.94,73676.3,5.31,-3.95,-1.09,0,*7A
1504328627.79,22521,20.88,73672.3,5.33,-3.67,-1.35,0,*7B
1504328629.03,22522,20.94,73670.3,5.35,-5.61,-2.35,0,*7D
1504328630.25,22523,20.94,73672.5,5.35,-4.41,-1.79,0,*74
1504328631.51,22524,20.94,73672.5,5.35,-5.61,-2.11,0,*7D
1504328632.73,22525,20.94,73672.3,5.35,-4.65,-1.17,0,*7C
1504328633.95,22526,20.94,73678.3,5.41,-3.71,-0.93,0,*43
1504328635.19,22527,20.94,73674.0,5.37,-4.89,-1.95,0,*74
1504328636.39,22528,20.94,73670.0,5.41,-6.05,-2.59,0,*7F
1504328637.64,22529,20.94,73664.5,5.41,-5.93,-2.59,0,*72
1504328638.84,22530,20.94,73662.8,5.41,-6.27,-2.83,0,*71
1504328640.08,22531,20.94,73668.3,5.41,-5.61,-2.47,0,*79
1504328641.28,22532,20.94,73668.0,5.41,-4.69,-2.19,0,*78
1504328642.49,22533,20.94,73668.0,5.41,-4.57,-1.95,0,*73
1504328643.7,22534,20.94,73666.3,5.41,-5.93,-2.79,0,*7C
1504328644.95,22535,20.94,73666.5,5.41,-5.81,-2.71,0,*76
1504328646.16,22536,20.88,73664.3,5.41,-6.01,-2.67,0,*79
1504328647.4,22537,20.94,73670.0,5.43,-5.43,-2.03,0,*7D
1504328648.58,22538,20.94,73664.3,5.41,-6.13,-3.07,0,*73
1504328649.82,22539,20.94,73668.8,5.43,-5.35,-1.91,0,*7A
1504328651.06,22540,20.94,73672.5,5.43,-3.67,-0.53,0,*4A
1504328652.31,22541,20.94,73672.5,5.43,-2.75,-0.93,0,*45
1504328653.54,22542,20.94,73672.0,5.43,-4.53,-2.11,0,*7C
1504328654.78,22543,20.94,73674.0,5.43,-4.05,-1.47,0,*7E
1504328656.04,22544,20.94,73678.5,5.43,-3.43,-1.13,0,*7D
1504328657.23,22545,20.94,73672.0,5.45,-4.13,-1.63,0,*7F
1504328658.44,22546,20.94,73670.5,5.45,-5.69,-2.87,0,*79
1504328659.63,22547,20.94,73666.0,5.45,-6.35,-3.11,0,*7C
1504328660.84,22548,20.94,73664.5,5.45,-6.05,-2.63,0,*74
1504328662.06,22549,20.88,73656.8,5.45,-5.81,-3.03,0,*7D
1504328663.26,22550,20.94,73652.5,5.45,-7.01,-3.83,0,*77
1504328664.5,22551,20.94,73662.0,5.45,-6.23,-2.71,0,*7B
1504328665.75,22552,20.94,73676.5,5.43,-4.85,-1.13,0,*77
1504328666.99,22553,20.94,73676.5,5.43,-4.41,-1.35,0,*7A
1504328668.18,22554,20.94,73666.3,5.45,-6.77,-3.27,0,*7D
1504328669.39,22555,20.94,73666.3,5.43,-7.23,-4.09,0,*71
1504328670.58,22556,20.94,73660.3,5.41,-7.53,-4.25,0,*79
1504328671.82,22557,20.94,73662.5,5.43,-6.81,-3.67,0,*75
1504328672.99,22558,20.94,73664.0,5.41,-6.69,-3.31,0,*7D
1504328674.17,22559,20.94,73662.8,5.41,-6.39,-3.23,0,*7A
1504328675.38,22560,20.94,73662.8,5.41,-6.23,-2.79,0,*75
1504328676.57,22561,20.94,73664.5,5.41,-5.51,-2.31,0,*7E
1504328677.76,22562,20.94,73662.0,5.41,-6.13,-2.79,0,*74
1504328678.95,22563,20.94,73662.0,5.41,-7.11,-3.79,0,*77
1504328680.16,22564,20.94,73662.8,5.41,-6.05,-2.59,0,*77
1504328681.36,22565,20.94,73658.5,5.41,-5.77,-2.43,0,*7B
1504328682.6,22566,20.94,73658.3,5.43,-6.23,-3.19,0,*76
1504328683.78,22567,20.94,73660.3,5.41,-6.47,-3.35,0,*79
1504328684.99,22568,20.94,73666.0,5.41,-7.11,-3.43,0,*75
1504328686.18,22569,20.94,73654.3,5.41,-6.31,-2.43,0,*76
1504328687.4,22570,20.94,73654.3,5.43,-5.55,-1.79,0,*77
1504328688.58,22571,20.94,73658.0,5.41,-3.35,-0.81,0,*42
1504328689.79,22572,20.94,73654.3,5.43,-2.87,-0.07,0,*75
1504328690.99,22573,20.94,73648.3,5.49,-3.71,0.09,0,*55
1504328692.15,22574,20.94,73658.0,5.49,-2.23,0.01,0,*5C
1504328693.39,22575,20.94,73652.3,5.49,-5.19,-2.11,0,*7D
1504328694.63,22576,20.94,73656.0,5.45,-5.27,-2.47,0,*7C
1504328695.85,22577,20.94,73662.8,5.49,-3.59,-0.97,0,*41
1504328697.09,22578,20.94,73656.8,5.51,-5.77,-2.15,0,*75
1504328698.33,22579,20.94,73662.8,5.51,-5.27,-2.19,0,*7D
1504328699.57,22580,20.94,73662.3,5.51,-3.79,-1.09,0,*74
1504328700.78,22581,20.94,73660.3,5.53,-3.27,-0.93,0,*4E
1504328701.99,22582,20.94,73662.8,5.53,-2.95,-1.05,0,*7B
1504328703.2,22583,20.94,73656.0,5.53,-5.19,-2.27,0,*7A
1504328704.43,22584,20.94,73654.8,5.57,-5.43,-1.87,0,*7F
1504328705.67,22585,20.94,73660.5,5.57,-3.39,-1.35,0,*7C
1504328706.89,22586,20.94,73660.8,5.57,-5.55,-2.83,0,*7D
1504328708.12,22587,20.94,73656.0,5.57,-6.05,-2.75,0,*73
1504328709.33,22588,20.94,73662.0,5.57,-5.43,-2.35,0,*79
1504328710.56,22589,20.94,73666.0,5.53,-4.77,-1.39,0,*75
1504328711.75,22590,20.94,73668.3,5.53,-3.03,0.25,0,*68
1504328712.98,22591,20.94,73672.3,5.57,-2.15,-0.85,0,*4C
1504328714.21,22592,20.94,73668.8,5.57,-2.75,-0.15,0,*40
1504328715.42,22593,20.94,73670.0,5.57,-2.91,-1.25,0,*79
1504328716.63,22594,20.94,73670.0,5.59,-4.53,-1.83,0,*74
1504328717.83,22595,20.94,73664.5,5.59,-4.93,-2.27,0,*74
1504328719.04,22596,20.94,73660.8,5.59,-7.01,-4.13,0,*7E
1504328720.26,22597,20.94,73668.0,5.57,-7.15,-4.29,0,*7D
1504328721.47,22598,20.94,73670.5,5.57,-5.43,-2.35,0,*78
1504328722.73,22599,20.94,73670.8,5.57,-5.73,-2.63,0,*79
1504328723.97,22600,20.94,73670.3,5.57,-5.97,-2.71,0,*73
1504328725.19,22601,20.94,73662.0,5.57,-6.73,-3.47,0,*7F
1504328726.43,22602,20.94,73664.0,5.57,-7.01,-4.05,0,*79
1504328727.67,22603,20.94,73654.0,5.57,-7.43,-4.25,0,*7C
1504328728.87,22604,20.94,73650.5,5.53,-7.11,-3.67,0,*79
1504328730.11,22605,20.94,73666.0,5.53,-5.85,-2.67,0,*76
1504328731.29,22606,20.94,73660.8,5.53,-6.43,-3.19,0,*74
1504328732.5,22607,20.94,73670.5,5.51,-6.13,-3.19,0,*72
1504328733.74,22608,20.94,73670.8,5.53,-5.89,-2.63,0,*73
1504328734.98,22609,20.94,73672.5,5.53,-5.85,-2.51,0,*7F
1504328736.16,22610,20.94,73666.5,5.53,-6.39,-3.03,0,*75
1504328737.35,22611,20.94,73660.3,5.53,-7.87,-4.61,0,*73
1504328738.59,22612,20.94,73652.0,5.51,-7.73,-4.57,0,*7C
1504328739.78,22613,20.94,73656.8,5.53,-7.83,-4.53,0,*74
1504328741.05,22614,20.94,73654.5,5.51,-5.15,-2.55,0,*7C
1504328742.26,22615,20.94,73652.0,5.51,-6.35,-2.91,0,*74
1504328743.5,22616,20.94,73654.0,5.51,-6.01,-2.67,0,*79
1504328744.73,22617,20.94,73656.5,5.53,-5.73,-2.75,0,*7F
1504328745.97,22618,20.94,73654.8,5.51,-6.05,-2.67,0,*73
1504328747.21,22619,20.94,73660.5,5.51,-5.93,-2.31,0,*7D
1504328748.45,22620,20.94,73662.5,5.57,-6.59,-3.51,0,*73
1504328749.68,22621,20.94,73666.3,5.51,-7.05,-3.95,0,*74
1504328750.92,22622,20.94,73658.8,5.51,-7.91,-4.65,0,*72
1504328752.16,22623,20.94,73660.3,5.51,-7.91,-4.65,0,*73
1504328753.37,22624,20.94,73658.0,5.51,-7.49,-4.33,0,*72
1504328754.55,22625,20.94,73666.3,5.49,-7.11,-3.83,0,*7B
1504328755.73,22626,20.94,73664.5,5.49,-6.89,-3.39,0,*79
1504328756.93,22627,20.94,73674.0,5.49,-6.63,-3.11,0,*76
1504328758.11,22628,20.94,73668.8,5.49,-6.09,-3.23,0,*74
1504328759.34,22629,20.94,73658.3,5.51,-7.39,-4.45,0,*79
1504328760.56,22630,20.94,73654.0,5.51,-8.55,-5.47,0,*77
1504328761.79,22631,20.94,73660.8,5.45,-8.07,-4.93,0,*7C
1504328763.01,22632,20.94,73666.0,5.45,-7.65,-4.29,0,*75
1504328764.25,22633,20.94,73662.3,5.43,-5.35,-1.91,0,*73
1504328765.49,22634,20.94,73666.8,5.43,-4.33,-1.39,0,*71
1504328766.7,22635,20.94,73662.8,5.43,-3.95,-0.81,0,*49
1504328767.92,22636,20.94,73668.3,5.45,-3.75,-1.01,0,*7B
1504328769.13,22637,20.94,73668.3,5.45,-3.47,-0.65,0,*48
1504328770.36,22638,20.94,73664.3,5.49,-4.69,-2.07,0,*76
1504328771.56,22639,20.94,73668.0,5.49,-3.27,-0.85,0,*42
1504328772.77,22640,20.94,73670.5,5.51,-2.43,-0.33,0,*4B
1504328773.98,22641,20.94,73670.3,5.51,-1.71,0.05,0,*50
1504328775.15,22642,20.94,73678.0,5.53,-2.27,0.05,0,*51
1504328776.36,22643,20.94,73672.0,5.57,-4.41,-1.75,0,*79
1504328777.57,22644,20.94,73660.0,5.57,-6.47,-3.27,0,*7F
1504328778.8,22645,20.94,73662.5,5.57,-4.37,-1.01,0,*7D
1504328780.02,22646,20.94,73668.8,5.57,-1.83,0.01,0,*58
1504328781.28,22647,20.94,73672.5,5.57,-2.11,-0.23,0,*4C
1504328782.52,22648,20.94,73670.0,5.59,-4.77,-1.99,0,*7B
1504328783.74,22649,20.94,73670.5,5.59,-4.01,-1.21,0,*78
1504328784.92,22650,20.94,73668.8,5.59,-3.11,-1.25,0,*72
1504328786.15,22651,20.94,73670.0,5.61,-4.61,-1.83,0,*74
1504328787.4,22652,20.94,73664.5,5.61,-4.85,-1.95,0,*7A
1504328788.59,22653,20.94,73668.3,5.63,-3.35,-0.49,0,*45
1504328789.77,22654,20.94,73666.0,5.63,-2.83,-0.41,0,*46
1504328790.95,22655,20.94,73664.3,5.63,-2.43,-0.49,0,*43
1504328792.16,22656,20.94,73666.3,5.67,-2.47,-0.33,0,*4D
1504328793.34,22657,20.94,73674.0,5.67,-1.75,-0.45,0,*4F
1504328794.57,22658,20.94,73676.5,5.67,-2.55,-0.89,0,*41
1504328795.8,22659,20.94,73668.0,5.69,-2.75,-1.29,0,*77
1504328797.02,22660,20.94,73670.8,5.69,-4.37,-1.95,0,*7A
1504328798.25,22661,20.94,73676.0,5.69,-3.91,-0.97,0,*43
1504328799.5,22662,20.94,73672.3,5.69,-2.03,0.59,0,*65
1504328800.75,22663,20.94,73676.0,5.73,-0.85,0.91,0,*57
1504328801.98,22664,20.94,73674.0,5.73,-3.19,-1.95,0,*7E
1504328803.22,22665,20.94,73670.0,5.73,-5.65,-2.95,0,*71
1504328804.4,22666,20.94,73668.8,5.71,-3.79,-0.77,0,*45
1504328805.62,22667,20.94,73674.8,5.73,-2.19,0.25,0,*6B
1504328806.85,22668,20.94,73664.8,5.73,-1.35,1.01,0,*5E
1504328808.01,22669,20.94,73668.8,5.75,-0.73,0.97,0,*54
1504328809.23,22670,20.94,73668.8,5.75,-0.93,0.37,0,*58
1504328810.45,22671,20.94,73666.5,5.75,-0.93,0.75,0,*5F
1504328811.68,22672,20.94,73668.3,5.77,-1.17,0.47,0,*62
1504328812.9,22673,20.94,73664.0,5.77,-1.75,-1.13,0,*7A
1504328814.11,22674,20.94,73670.0,5.79,-3.11,-1.01,0,*70
1504328815.31,22675,20.94,73664.0,5.79,-2.35,-0.89,0,*47
1504328816.53,22676,20.94,73664.5,5.81,-2.87,-0.85,0,*46
1504328817.76,22677,20.94,73664.5,5.81,-1.99,0.01,0,*5A
1504328818.96,22678,20.94,73664.5,5.79,-1.99,1.05,0,*57
1504328820.17,22679,20.94,73670.3,5.81,-3.35,-0.49,0,*41
1504328821.4,22680,20.94,73670.0,5.83,-2.11,0.13,0,*60
1504328822.6,22681,20.94,73670.3,5.83,-1.67,0.13,0,*63
1504328823.82,22682,20.94,73670.3,5.83,-3.95,-1.47,0,*72
1504328825.01,22683,20.94,73670.3,5.85,-2.87,0.05,0,*5D
1504328826.22,22684,20.94,73662.3,5.83,-2.75,-0.69,0,*46
1504328827.4,22685,20.94,73668.0,5.83,-3.23,-0.49,0,*47
1504328828.62,22686,20.94,73660.5,5.85,-3.87,-1.21,0,*73
1504328829.83,22687,20.94,73662.3,5.85,-4.49,-0.85,0,*48
1504328831.06,22688,20.94,73666.3,5.85,-2.55,-0.61,0,*46
1504328832.24,22689,20.94,73664.8,5.83,-2.43,-0.57,0,*43
1504328833.44,22690,20.94,73666.8,5.85,-2.31,0.05,0,*52
1504328834.65,22691,20.94,73666.3,5.85,-1.25,0.79,0,*6E
1504328835.89,22692,20.94,73666.3,5.89,-2.71,-0.57,0,*42
1504328837.11,22693,20.94,73662.5,5.89,-4.09,-2.15,0,*7E
1504328838.36,22694,20.94,73662.8,5.89,-4.17,-2.07,0,*75
1504328839.6,22695,20.94,73662.8,5.89,-4.33,-1.43,0,*71
1504328840.82,22696,20.94,73666.8,5.89,-6.01,-2.43,0,*72
1504328842.06,22697,20.94,73656.0,5.89,-6.81,-3.47,0,*7E
1504328843.25,22698,20.94,73652.8,5.85,-6.69,-3.31,0,*7A
1504328844.47,22699,20.94,73662.5,5.83,-6.59,-3.59,0,*70
1504328845.66,22700,20.94,73662.3,5.83,-6.31,-2.99,0,*72
1504328846.9,22701,20.94,73660.3,5.83,-4.01,-1.05,0,*74
1504328848.11,22702,20.94,73658.0,5.83,-4.09,-1.35,0,*7C
1504328849.34,22703,20.94,73668.8,5.83,-2.75,0.13,0,*68
1504328850.58,22704,20.94,73668.0,5.85,-0.93,0.87,0,*5E
1504328851.76,22705,20.94,73672.0,5.85,-0.49,0.97,0,*59
1504328852.98,22706,20.94,73670.5,5.85,-0.57,1.59,0,*66
1504328854.2,22707,20.94,73674.0,5.85,-1.35,1.83,0,*55
1504328855.42,22708,20.94,73672.5,5.85,-1.59,1.93,0,*51
1504328856.69,22709,20.94,73678.3,5.93,-1.47,1.21,0,*51
1504328857.93,22710,20.94,73674.0,5.91,-3.51,-0.27,0,*44
1504328859.14,22711,20.94,73672.5,5.91,-3.79,-0.49,0,*47
1504328860.36,22712,20.94,73668.3,5.91,-4.33,-1.35,0,*77
1504328861.62,22713,20.94,73664.3,5.93,-4.21,-1.99,0,*71
1504328862.85,22714,20.94,73658.8,5.91,-4.21,-1.35,0,*72
1504328864.04,22715,20.94,73656.0,5.95,-4.37,-1.25,0,*71
1504328865.26,22716,20.94,73656.0,5.95,-3.71,-0.49,0,*4C
1504328866.5,22717,20.94,73658.5,5.93,-3.91,-0.73,0,*4C
1504328867.71,22718,20.94,73662.0,5.95,-4.41,-0.85,0,*46
1504328868.9,22719,20.94,73664.8,5.95,-3.35,0.05,0,*56
1504328870.11,22720,20.94,73662.0,5.97,-3.23,-0.57,0,*43
1504328871.3,22721,20.94,73656.8,5.99,-4.37,-1.29,0,*76
1504328872.53,22722,20.94,73656.5,5.97,-3.35,-0.11,0,*44
1504328873.74,22723,20.94,73662.8,6.01,-3.03,-0.07,0,*7B
1504328874.98,22724,20.94,73658.3,6.03,-3.55,-0.85,0,*47
1504328876.18,22725,20.94,73660.0,6.01,-2.91,0.01,0,*5C
1504328877.39,22726,20.94,73660.8,6.03,-2.55,0.43,0,*63
1504328878.6,22727,20.94,73654.3,6.03,-2.51,0.09,0,*58
1504328879.83,22728,20.94,73658.8,6.05,-1.59,0.29,0,*68
1504328881.09,22729,20.94,73666.8,6.05,-1.95,0.51,0,*66
1504328882.3,22730,20.94,73664.0,6.05,-3.07,-0.45,0,*4F
1504328883.55,22731,20.94,73656.3,6.05,-5.81,-2.23,0,*74
1504328884.8,22732,20.94,73660.3,6.05,-2.75,-0.37,0,*4C
1504328886.02,22733,20.94,73656.8,6.03,-5.19,-2.35,0,*76
1504328887.24,22734,20.94,73658.3,6.03,-3.75,-0.85,0,*44
1504328888.44,22735,20.94,73660.3,6.03,-3.75,-0.61,0,*4F
1504328889.67,22736,20.94,73664.5,6.03,-1.91,0.83,0,*65
1504328890.86,22737,20.94,73672.5,6.03,-1.79,0.09,0,*50
1504328892.1,22738,20.94,73670.5,6.05,-2.31,0.59,0,*63
1504328893.31,22739,20.94,73670.0,6.05,-5.39,-1.59,0,*71
1504328894.56,22740,20.94,73668.8,6.05,-5.15,-0.73,0,*48
1504328895.8,22741,20.94,73654.5,6.05,-6.89,-1.83,0,*71
1504328897.03,22742,20.94,73658.3,6.03,-4.33,-1.05,0,*79
1504328898.22,22743,20.94,73656.5,6.03,-3.03,-0.49,0,*45
1504328899.44,22744,20.94,73656.3,6.03,-1.79,0.47,0,*6E
1504328900.67,22745,20.94,73664.3,6.05,-1.59,0.71,0,*6E
1504328901.86,22746,20.94,73662.8,6.05,-0.49,0.97,0,*55
1504328903.1,22747,20.94,73666.0,6.07,-2.03,0.17,0,*62
1504328904.31,22748,20.94,73662.8,6.07,-1.71,0.33,0,*6D
1504328905.55,22749,20.94,73662.3,6.05,-1.63,0.47,0,*6E
1504328906.76,22750,20.94,73664.3,6.07,-1.33,0.67,0,*63
1504328907.99,22751,20.94,73666.3,6.07,-2.47,-0.33,0,*4E
1504328909.2,22752,20.94,73664.5,6.07,-2.35,0.29,0,*6E
1504328910.45,22753,20.94,73660.3,6.05,-3.75,-1.01,0,*7E
1504328911.66,22754,20.94,73662.3,6.07,-2.55,-0.07,0,*7F
1504328912.85,22755,20.94,73666.3,6.07,-2.31,0.01,0,*57
1504328914.12,22756,20.94,73666.8,6.09,-2.67,-0.23,0,*44